FLORIPASAT-1 (44885 NORAD) Tracking and Keplerian Element Data

This shows tracking and keplerian element data for the satellite.

Feedback or suggestion? Click here.




ElementValue
Catalog44885
NameFLORIPASAT-1
Epoch Orbit1466
Epoch Day88.16880612
Epoch Year2020
RAAN164.8256
Inclination97.9628
Eccentricity0.0013494
Argument of Perigee316.7798
Mean Anonmoly43.2377
Mean Motion14.81989072
Decay Rate2.23E-06
L11 44885U 19093G 20088.16880612 .00000223 00000-0 34887-4 0 9992
L22 44885 97.9628 164.8256 0013494 316.7798 43.2377 14.81989072 14668

Live tracking and technical data element details for FLORIPASAT-1 (NORAD 44885). FLORIPASAT-1 can be tracked NOW for your location showing map with azimuth and elevation plus other details from your city location.

Track the satellite on the map from your city or location and see movement details for azimuth, elevation, latitude, longitude, range, height, and movement on the map or in text.







IsCatalogInMostPopularTable: catalog: 44885, numindb: 22
Update: records affected: 1



GetName: 44885 FLORIPASAT-1

Hit Count: updated at: Sat, 28 Mar 2020 21:22:17 GMT